CW9769 Weather Reports


Display with metric or nautical units.
time (UTC)temp
F
wind
direction
speed
MPH
gust
MPH
rain 1hr
in
rain 24hr
in
rain mn
in
humidity
%
barometer
mb
20260902003340 77 210 0.0 2.0 0.00 0.00 0.00 84 1014.8
20260902002339 77 210 1.0 2.0 0.00 0.00 0.00 83 1014.8
20260902001338 78 210 0.0 1.0 0.00 0.00 0.00 81 1015.1
20260902000337 78 309 1.0 2.0 0.00 0.00 0.00 81 1015.5
20260901235335 79 287 1.0 2.0 0.00 0.00 0.00 78 1015.1
20260901234334 79 300 0.0 4.0 0.00 0.00 0.00 77 1015.2
20260901233332 80 285 2.0 7.0 0.00 0.00 0.00 75 1015.2
20260901232332 80 309 3.0 9.0 0.00 0.00 0.00 75 1015.5
20260901231331 81 305 4.0 12.0 0.00 0.00 0.00 74 1015.5
20260901230330 81 298 6.0 15.0 0.00 0.00 0.00 73 1015.5
20260901225258 81 298 10.0 14.0 0.00 0.00 0.00 74 1015.6
20260901224257 81 304 6.0 14.0 0.00 0.00 0.00 75 1015.9
20260901223256 82 312 8.0 14.0 0.00 0.00 0.00 77 1015.9
20260901222224 82 293 9.0 14.0 0.00 0.00 0.00 77 1016.3
20260901221152 82 290 5.0 11.0 0.00 0.00 0.00 78 1016.3
20260901220151 83 299 7.0 11.0 0.00 0.00 0.00 76 1015.9
20260901215151 83 296 6.0 11.0 0.00 0.00 0.00 74 1016.3
20260901214150 83 294 5.0 12.0 0.00 0.00 0.00 75 1016.3
20260901213150 83 282 7.0 13.0 0.00 0.00 0.00 73 1015.9
20260901212149 83 281 8.0 15.0 0.00 0.00 0.00 73 1015.9
20260901211148 84 285 7.0 15.0 0.00 0.00 0.00 72 1016.3
20260901210147 84 310 12.0 21.0 0.00 0.00 0.00 72 1016.3
20260901205146 85 295 7.0 21.0 0.00 0.00 0.00 71 1016.0
20260901204145 86 292 11.0 20.0 0.00 0.00 0.00 69 1016.0
20260901203144 87 287 11.0 21.0 0.00 0.00 0.00 68 1016.0
20260901202111 87 279 10.0 21.0 0.00 0.00 0.00 70 1016.0
20260901201111 87 280 11.0 18.0 0.00 0.00 0.00 70 1016.1
20260901200110 88 277 12.0 18.0 0.00 0.00 0.00 70 1016.1
20260901195109 86 296 9.0 18.0 0.00 0.00 0.00 72 1016.0
20260901194109 87 279 11.0 19.0 0.00 0.00 0.00 69 1016.0
20260901193037 86 291 11.0 17.0 0.00 0.00 0.00 72 1016.0
20260901192036 85 284 8.0 17.0 0.00 0.00 0.00 72 1016.0
20260901191035 86 283 9.0 14.0 0.00 0.00 0.00 72 1016.0
20260901190034 84 273 7.0 14.0 0.00 0.00 0.00 75 1015.9
20260901185033 85 270 7.0 13.0 0.00 0.00 0.00 74 1016.0
20260901184001 86 265 6.0 11.0 0.00 0.00 0.00 72 1016.0
20260901183001 85 233 4.0 14.0 0.00 0.00 0.00 72 1015.9
20260901182000 85 275 8.0 14.0 0.00 0.00 0.00 74 1015.9
20260901181000 84 235 5.0 11.0 0.00 0.00 0.00 74 1015.9
20260901175959 84 272 7.0 14.0 0.00 0.00 0.00 75 1015.9
20260901174958 84 272 9.0 14.0 0.00 0.00 0.00 77 1015.9
20260901173957 83 240 6.0 14.0 0.00 0.00 0.00 76 1016.2
20260901172956 84 268 10.0 14.0 0.00 0.00 0.00 74 1016.6
20260901171956 83 266 8.0 17.0 0.00 0.00 0.00 75 1016.5
20260901170955 83 273 8.0 17.0 0.00 0.00 0.00 77 1016.5
20260901165954 83 273 8.0 13.0 0.00 0.00 0.00 75 1016.9
20260901164954 84 273 8.0 14.0 0.00 0.00 0.00 73 1016.5
20260901163953 83 283 8.0 17.0 0.00 0.00 0.00 76 1016.9
20260901162952 84 281 10.0 17.0 0.00 0.00 0.00 72 1016.9
20260901161951 84 284 10.0 16.0 0.00 0.00 0.00 73 1016.9
20260901160951 82 288 9.0 15.0 0.00 0.00 0.00 74 1016.9
20260901155919 83 284 9.0 16.0 0.00 0.00 0.00 76 1016.9
20260901154918 83 293 10.0 19.0 0.00 0.00 0.00 74 1016.9
20260901153917 83 299 11.0 19.0 0.00 0.00 0.00 72 1016.8
20260901152917 85 303 10.0 16.0 0.00 0.00 0.00 73 1016.9
20260901151845 84 287 7.0 14.0 0.00 0.00 0.00 73 1016.5
20260901150844 84 297 10.0 18.0 0.00 0.00 0.00 73 1016.5
20260901145843 83 310 7.0 19.0 0.00 0.00 0.00 75 1016.5
20260901144842 83 308 12.0 19.0 0.00 0.00 0.00 72 1016.8
20260901143841 83 306 10.0 17.0 0.00 0.00 0.00 73 1016.5
20260901142841 82 303 11.0 17.0 0.00 0.00 0.00 75 1016.5
20260901141840 82 306 10.0 16.0 0.00 0.00 0.00 74 1016.8
20260901140839 82 319 9.0 16.0 0.00 0.00 0.00 76 1016.5
20260901135838 82 299 10.0 15.0 0.00 0.00 0.00 74 1016.8
20260901134838 81 299 8.0 14.0 0.00 0.00 0.00 77 1016.5
20260901133806 81 293 8.0 14.0 0.00 0.00 0.00 77 1016.5
20260901132734 80 287 6.0 12.0 0.00 0.00 0.00 78 1016.5
20260901131734 80 298 6.0 13.0 0.00 0.00 0.00 78 1016.5
20260901130733 80 301 7.0 12.0 0.00 0.00 0.00 78 1016.5
20260901125732 80 303 5.0 12.0 0.00 0.00 0.00 79 1016.5
20260901124731 79 304 6.0 11.0 0.00 0.00 0.00 79 1016.5
20260901123729 79 301 6.0 11.0 0.00 0.00 0.00 80 1016.8
20260901122728 78 302 6.0 11.0 0.00 0.00 0.00 80 1016.8
20260901121727 77 299 8.0 11.0 0.00 0.00 0.00 81 1016.7
20260901120726 77 312 4.0 10.0 0.00 0.00 0.00 81 1016.4
20260901115725 77 303 6.0 8.0 0.00 0.00 0.00 81 1016.4
20260901114724 77 290 5.0 11.0 0.00 0.00 0.00 82 1016.4
20260901113723 77 303 5.0 11.0 0.00 0.00 0.00 81 1016.5
20260901112651 77 287 5.0 12.0 0.00 0.00 0.00 81 1016.5
20260901111650 77 294 4.0 13.0 0.00 0.00 0.00 81 1016.5
20260901110649 77 296 6.0 12.0 0.00 0.00 0.00 81 1016.2
20260901105649 77 303 5.0 13.0 0.00 0.00 0.00 81 1016.2
20260901104648 77 288 6.0 12.0 0.00 0.00 0.00 81 1015.9
20260901103647 77 296 5.0 10.0 0.00 0.00 0.00 81 1015.9
20260901102646 77 278 5.0 12.0 0.00 0.00 0.00 82 1015.9
20260901101646 77 294 6.0 12.0 0.00 0.00 0.00 82 1015.9
20260901100645 77 283 4.0 7.0 0.00 0.00 0.00 82 1015.9
20260901095645 77 279 3.0 7.0 0.00 0.00 0.00 83 1016.0
20260901094644 76 283 4.0 8.0 0.00 0.00 0.00 83 1016.0
20260901093612 76 283 4.0 8.0 0.00 0.00 0.00 84 1016.0
20260901092611 76 277 4.0 9.0 0.00 0.00 0.00 84 1015.9
20260901091539 76 277 4.0 9.0 0.00 0.00 0.00 84 1015.9
20260901090538 75 273 4.0 8.0 0.00 0.00 0.00 85 1015.9
20260901085538 76 266 4.0 9.0 0.00 0.00 0.00 85 1015.9
20260901084537 76 268 4.0 9.0 0.00 0.00 0.00 84 1016.0
20260901083536 76 276 4.0 9.0 0.00 0.00 0.00 83 1015.9
20260901082535 76 277 5.0 7.0 0.00 0.00 0.00 83 1015.9
20260901081535 76 275 4.0 7.0 0.00 0.00 0.00 83 1015.9
20260901080534 76 288 5.0 8.0 0.00 0.00 0.00 83 1015.9
20260901075533 76 278 4.0 8.0 0.00 0.00 0.00 83 1015.9
20260901074532 76 276 5.0 9.0 0.00 0.00 0.00 83 1015.9
20260901073531 75 284 4.0 9.0 0.00 0.00 0.00 84 1015.8
20260901072530 75 274 4.0 9.0 0.00 0.00 0.00 84 1015.8
20260901071530 75 269 5.0 8.0 0.00 0.00 0.00 84 1015.8
20260901070529 75 274 5.0 8.0 0.00 0.00 0.00 85 1015.9
20260901065528 75 260 4.0 8.0 0.00 0.00 0.00 85 1015.9
20260901064528 74 257 4.0 8.0 0.00 0.00 0.00 86 1015.9
20260901063527 74 259 2.0 7.0 0.00 0.00 0.00 86 1015.9
20260901062526 74 264 3.0 4.0 0.00 0.00 0.00 86 1016.2
20260901061525 74 264 2.0 5.0 0.00 0.00 0.00 85 1015.9
20260901060525 74 259 2.0 5.0 0.00 0.00 0.00 85 1016.2
20260901055524 74 240 1.0 6.0 0.00 0.00 0.00 85 1016.2
20260901054523 74 265 1.0 6.0 0.00 0.00 0.00 85 1016.2
20260901053522 74 269 1.0 4.0 0.00 0.00 0.00 86 1016.2
20260901052522 74 250 1.0 3.0 0.00 0.00 0.00 86 1016.2
20260901051521 74 259 1.0 5.0 0.00 0.00 0.00 87 1016.5
20260901050449 73 209 1.0 5.0 0.00 0.00 0.00 87 1016.2
20260901045417 73 213 2.0 4.0 0.00 0.00 0.00 88 1016.5
20260901044416 73 197 1.0 5.0 0.00 0.00 0.00 88 1016.5
20260901043415 74 194 2.0 4.0 0.00 0.00 0.00 87 1016.2
20260901042415 74 193 2.0 4.0 0.00 0.00 0.00 86 1016.2
20260901041414 74 206 1.0 5.0 0.00 0.00 0.00 86 1016.5
20260901040412 74 229 2.0 6.0 0.00 0.00 0.00 87 1016.2
20260901035410 73 224 3.0 6.0 0.00 0.00 0.00 88 1016.2
20260901034410 73 204 2.0 6.0 0.00 0.00 0.00 89 1016.1
20260901033409 72 227 2.0 4.0 0.00 0.00 0.00 91 1016.4
20260901032408 72 254 1.0 2.0 0.00 0.00 0.00 92 1016.4
20260901031407 72 200 2.0 2.0 0.00 0.00 0.00 91 1016.4
20260901030405 72 200 0.0 2.0 0.00 0.00 0.00 91 1016.4
20260901025405 72 200 1.0 2.0 0.00 0.00 0.00 90 1016.0
20260901024404 72 193 1.0 4.0 0.00 0.00 0.00 90 1016.0
20260901023332 72 183 1.0 4.0 0.00 0.00 0.00 90 1016.0
20260901022300 72 199 2.0 4.0 0.00 0.00 0.00 91 1016.0
20260901021300 72 187 1.0 2.0 0.00 0.00 0.00 90 1016.0
20260901020259 73 177 1.0 1.0 0.00 0.00 0.00 89 1016.0
20260901015258 74 125 1.0 2.0 0.00 0.00 0.00 89 1016.3
20260901014257 74 113 0.0 2.0 0.00 0.00 0.00 88 1016.3
20260901013225 75 113 0.0 2.0 0.00 0.00 0.00 87 1016.3
20260901012223 75 113 1.0 2.0 0.00 0.00 0.00 86 1016.3
20260901011221 76 171 0.0 7.0 0.00 0.00 0.00 85 1015.7
20260901010221 76 198 2.0 7.0 0.00 0.00 0.00 84 1015.3
20260901005220 76 217 4.0 8.0 0.00 0.00 0.00 83 1015.3
20260901004148 76 232 3.0 8.0 0.00 0.00 0.00 84 1015.6